Skip Page Navigation
NASA JPL Caltech
NASA Logo - Jet Propulsion Laboratory + View the NASA Portal
+ Near-Earth Object (NEO) Program
Search JPL
JPL Home Earth Solar System Stars & Galaxies Technology
JPL Solar System Dynamics
BODIES ORBITS EPHEMERIDES TOOLS PHYSICAL DATA DISCOVERY FAQ SITE MAP
JPL Small-Body Database Browser
Search: [ help ]  
357439 (2004 BL86)
Classification: Apollo [NEO, PHA]          SPK-ID: 2357439
Ephemeris | Orbit Diagram | Orbital Elements | Physical Parameters | Discovery Circumstances | Close-Approach Data ]

[ hide orbit diagram ]
Orbit Diagram
Note: Make sure you have Java enabled on your browser to see the applet. This applet is provided as a 3D orbit visualization tool. The applet was implemented using 2-body methods, and hence should not be used for determining accurate long-term trajectories (over several years or decades) or planetary encounter circumstances. For accurate long-term ephemerides, please instead use our Horizons system.
Orbit Viewer

Additional Notes: the orbits shown in the applet are color coded. The planets are white lines, and the asteroid/comet is a blue line. The bright white line indicates the portion of the orbit that is above the ecliptic plane, and the darker portion is below the ecliptic plane. Likewise for the asteroid/comet orbit, the light blue indicates the portion above the ecliptic plane, and the dark blue the portion below the ecliptic plane.

Orbit Viewer applet originally written and kindly provided by Osamu Ajiki (AstroArts), and further modified by Ron Baalke (JPL).


Orbital Elements at Epoch 2456400.5 (2013-Apr-18.0) TDB
Reference: JPL 26 (heliocentric ecliptic J2000)
 Element Value Uncertainty (1-sigma)   Units 
e .4031901651677832 4.0495e-07  
a 1.502094866701158 6.1379e-08 AU
q .8964649892982388 6.3299e-07 AU
i 23.74290100698978 3.0385e-05 deg
node 126.7265636275342 5.2839e-05 deg
peri 311.2306890142079 7.339e-05 deg
M 32.85607666396105 0.00010966 deg
tp 2456339.129781118906
(2013-Feb-15.62978112)
0.00020183 JED
period 672.4259570963079
1.84
4.1216e-05
1.128e-07
d
yr
n .5353749304303539 3.2815e-08 deg/d
Q 2.107724744104077 8.6127e-08 AU
  Orbit Determination Parameters
   # obs. used (total)      74  
   data-arc span      3329 days (9.11 yr)  
   first obs. used      2004-01-30  
   last obs. used      2013-03-12  
   planetary ephem.      DE405  
   SB-pert. ephem.      SB405-CPV-2  
   condition code      1  
   fit RMS      .6533  
   data source      ORB  
   producer      Otto Matic  
   solution date      2013-Apr-29 15:42:02  

Additional Information
 Earth MOID = .00752381 AU 
 T_jup = 4.364 
[ show covariance matrix ]

Ephemeris | Orbit Diagram | Orbital Elements | Physical Parameters | Discovery Circumstances | Close-Approach Data ]

Physical Parameter Table
Parameter Symbol Value Units Sigma Reference Notes
absolute magnitude H 18.851 mag .526 26 autocmod 2.5c

357439 (2004 BL86)          Discovered 2004-Jan-30 by LINEAR at Socorro (704)
Reference: 20130327/Numbers.arcLast Updated: 2013-03-29

[ show close-approach data ]
Ephemeris | Orbit Diagram | Orbital Elements | Physical Parameters | Discovery Circumstances | Close-Approach Data ]
ABOUT SSD CREDITS/AWARDS PRIVACY/COPYRIGHT GLOSSARY LINKS
FirstGov 2013-May-22 19:04 UT
(server date/time)  
NASA Home Page
Site Manager:   Donald K. Yeomans
Webmaster  Alan B. Chamberlin